This is the latest recevied weather packets stored in our database for station/object SR5NLK-1. If no packets are shown the sender has not sent any weather packets the latest 1 day(s).
| Time | Temp. | Humidity | Pressure | Rain* | Wind** | Luminosity | Snow |
|---|---|---|---|---|---|---|---|
| 1778058390 | 31.11° C | 28% | 1046.1 hPa | 0 mm | - | - | - |
| 1778058151 | 31.11° C | 28% | 1049.1 hPa | 0 mm | - | - | - |
| 1778057851 | 31.11° C | 28% | 973.8 hPa | 0 mm | - | - | - |
| 1778057551 | 31.11° C | 28% | 1034.5 hPa | 0 mm | - | - | - |
| 1778057251 | 31.11° C | 29% | 1042.8 hPa | 0 mm | - | - | - |
| 1778056951 | 31.11° C | 29% | 1046 hPa | 0 mm | - | - | - |
| 1778056651 | 31.11° C | 28% | 1054.5 hPa | 0 mm | - | - | - |
| 1778056410 | 31.11° C | 28% | 1035.2 hPa | 0 mm | - | - | - |
| 1778056351 | 31.11° C | 28% | 1081.5 hPa | 0 mm | - | - | - |
| 1778056051 | 31.11° C | 28% | 1043.1 hPa | 0 mm | - | - | - |
| 1778055751 | 31.67° C | 27% | 1023.1 hPa | 0 mm | - | - | - |
| 1778055451 | 32.78° C | 26% | 1090.9 hPa | 0 mm | - | - | - |
| 1778055151 | 33.89° C | 26% | 1092 hPa | 0 mm | - | - | - |
| 1778054851 | 34.44° C | 26% | 1048.5 hPa | 0 mm | - | - | - |
| 1778054551 | 34.44° C | 26% | 1033 hPa | 0 mm | - | - | - |
| 1778054430 | 34.44° C | 27% | 1004.1 hPa | 0 mm | - | - | - |
| 1778054251 | 34.44° C | 27% | 1039.7 hPa | 0 mm | - | - | - |
| 1778053951 | 34.44° C | 27% | 1036.6 hPa | 0 mm | - | - | - |
| 1778053651 | 34.44° C | 27% | 983.8 hPa | 0 mm | - | - | - |
| 1778053351 | 35° C | 27% | 1081.5 hPa | 0 mm | - | - | - |
| 1778053051 | 34.44° C | 28% | 1081.5 hPa | 0 mm | - | - | - |
| 1778052751 | 33.89° C | 30% | 1084.7 hPa | 0 mm | - | - | - |
| 1778052450 | 33.33° C | 29% | 991.6 hPa | 0 mm | - | - | - |
| 1778052151 | 33.89° C | 30% | 1016.7 hPa | 0 mm | - | - | - |
| 1778051851 | 33.89° C | 30% | 1103.3 hPa | 0 mm | - | - | - |
* Rain latest hour (hover to see other rain measurements)
** Current wind speed in m/s (hover to see current wind gust speed)